Regional Weather Roundup
Issued by NWS

Home | Current Version | Previous Version | Text Only | Print | Product List | Glossary Off
Versions: 1 2 3 4 5 6 7 8 9 10 11 12 13 14 15 16 17 18 19 20 21 22 23 24 25 26 27 28 29 30 31 32 33 34 35 36 37 38 39 40 41 42 43 44 45 46 47 48 49 50

000
ASUS45 KBOI 251010
RWRID

IDAHO REGIONAL WEATHER ROUNDUP
NATIONAL WEATHER SERVICE BOISE ID
400 AM MDT MON MAY 25 2015

NOTE: "FAIR" INDICATES FEW OR NO CLOUDS BELOW 12000 FEET
WITH NO SIGNIFICANT WEATHER AND/OR OBSTRUCTIONS TO VISIBILITY

IDZ012-014-251100-
SOUTHWEST IDAHO


CITY           SKY/WX    TMP DP  RH WIND       PRES   REMARKS
BOISE          CLEAR     54  46  74 CALM      29.87S
CALDWELL       CLEAR     52  39  62 E6        29.86S
MOUNTAIN HOME  CLEAR     49  44  85 NE5       29.87S
$$

IDZ016-017-251100-
SOUTHCENTRAL IDAHO


CITY           SKY/WX    TMP DP  RH WIND       PRES   REMARKS
BURLEY         MOCLDY    47  43  86 SE5       29.91S
JEROME         MOCLDY    49  45  86 E7        29.92R
TWIN FALLS     CLOUDY    53  44  71 S12       29.89R
$$

IDZ019>023-251100-
SOUTHEAST IDAHO


CITY           SKY/WX    TMP DP  RH WIND       PRES   REMARKS
IDAHO FALLS    PTCLDY    45  44  97 CALM      29.93S
POCATELLO      CLEAR     50  46  86 SW10      29.93R
REXBURG        MOCLDY    48  44  86 SW3       29.93R
$$

IDZ006-010-011-018-031-032-251100-
CENTRAL IDAHO MOUNTAINS


CITY           SKY/WX    TMP DP  RH WIND       PRES   REMARKS
MCCALL         CLEAR     41  38  89 CALM      29.92R
HAILEY         CLOUDY    45  43  93 NW9       29.97S
STANLEY          N/A     34  32  92 S3        30.01S
SALMON         CLEAR     45  39  81 CALM      29.93S
CHALLIS        CLEAR     43  37  79 CALM      29.95S
$$

IDZ002-004-006-007-026-251100-
NORTHERN IDAHO


CITY           SKY/WX    TMP DP  RH WIND       PRES   REMARKS
LEWISTON       CLOUDY    60  52  74 SE9       29.81S
LOWELL           N/A     52  50  93 CALM      29.89R
COEUR D`ALENE  CLOUDY    55  50  82 NE8       29.84F
MULLAN PASS    MOCLDY    48  35  60 SE5       29.95S
$$


USA.gov is the U.S. government's official web portal to all federal, state and local government web resources and services.